x

Frying Pan Shoals, Nc Buoy (41013) Wave Buoy

3:50pm - Sun 30th Apr 2017 All times are EDT. -4 hours from GMT.

  • Sig Wave height 4.3ft
  • Swell Direction
  • Peak Period 6s
  • Average Period 5s
  • Wind
    13mph, 18mph gusts
  • Sea Temp 75°f
  • 空気 Temp 76°f
  • Sea Pressure 1022.1mb
  • Frying Pan Shoals, Nc Buoy
  • Frying Pan Shoals, Nc Buoy

More Historic Weather Station data

Upgrade to MSW Pro to gain access to the past 30 days of data for over 8000 Wavebouys and Weather Stations around the globe.

Join Pro

Comparision Forecast

View Surf forecast
   
Sun 04/30 3:50pm 4.5ft 6s 5s 13 18 mph 1022.1mb 75f 76f
3:40pm 4.5ft  -  5s 13 18 mph 1022.4mb 75f 76f
3:30pm  -   -   -  13 18 mph 1022.4mb 75f 76f
3:20pm  -   -   -  16 18 mph 1022.5mb 75f 76f
3:10pm  -   -   -  16 20 mph 1022.6mb 75f 76f
3:00pm  -   -   -  16 18 mph 1022.8mb 75f 76f
2:50pm 4ft 5s 5s 16 20 mph 1022.8mb 75f 76f
2:40pm 4ft  -  5s 16 18 mph 1023mb 75f 76f
2:30pm  -   -   -  16 20 mph 1023.1mb 75f 76f
2:20pm  -   -   -  16 20 mph 1023.4mb 75f 76f
2:10pm  -   -   -  16 20 mph 1023.4mb 75f 76f
2:00pm  -   -   -  16 20 mph 1023.4mb 75f 76f
1:50pm 4ft 7s 5s 18 22 mph 1023.4mb 75f 76f
1:40pm 4ft  -  5s 18 20 mph 1023.4mb 75f 76f
1:30pm  -   -   -  18 20 mph 1023.3mb 74f 76f
1:20pm  -   -   -  18 20 mph 1023.4mb 75f 76f
1:10pm  -   -   -  18 22 mph 1023.5mb 74f 76f
1:00pm  -   -   -  16 20 mph 1023.4mb 75f 76f
12:50pm 3.5ft 7s 5s 18 20 mph 1023.5mb 74f 76f
12:40pm 3.5ft  -  5s 18 22 mph 1023.4mb 74f 76f
12:30pm  -   -   -  16 20 mph 1023.5mb 74f 76f
12:20pm  -   -   -  18 22 mph 1023.5mb 74f 76f
12:10pm  -   -   -  18 20 mph 1023.6mb 74f 76f
12:00pm  -   -   -  18 20 mph 1023.8mb 74f 76f
11:50am 3.5ft 7s 5s 16 20 mph 1023.9mb 74f 76f
11:40am 3.5ft  -  5s 18 20 mph 1023.9mb - 76f
11:30am  -   -   -  16 18 mph 1024.2mb 74f 76f
11:20am  -   -   -  16 20 mph 1024mb 74f 76f
11:10am  -   -   -  16 18 mph 1024mb 74f 76f
11:00am  -   -   -  16 18 mph 1024mb 74f 76f
10:50am 4ft 5s 5s 16 18 mph 1023.8mb 74f 76f
10:40am 4ft  -  5s 16 20 mph 1023.8mb 74f 76f
10:30am  -   -   -  16 18 mph 1023.8mb 74f 76f
10:20am  -   -   -  13 18 mph 1023.8mb 74f 76f
10:10am  -   -   -  13 18 mph 1023.6mb 74f 76f
10:00am  -   -   -  13 16 mph 1023.6mb 74f 76f
9:10am  -   -   -  13 18 mph 1023.5mb 74f 76f
9:00am  -   -   -  13 16 mph 1023.5mb 74f 76f
8:50am 3.5ft 7s 4s 16 18 mph 1023.4mb - 76f
8:40am 3.5ft  -  4s 16 18 mph 1023.3mb 74f 76f
8:30am  -   -   -  16 20 mph 1023mb 74f 76f
8:20am  -   -   -  16 20 mph 1023mb 74f 76f
8:10am  -   -   -  16 22 mph 1023mb 74f 76f
8:00am  -   -   -  16 18 mph 1023mb 74f 75f
7:50am 3.5ft 7s 5s 16 18 mph 1023mb 74f 75f
7:40am 3.5ft  -  5s 16 18 mph 1023mb 74f 75f
7:30am  -   -   -  16 18 mph 1023mb - 75f
7:20am  -   -   -  13 16 mph 1022.8mb 74f 75f
7:10am  -   -   -  13 16 mph 1022.9mb 74f 75f
7:00am  -   -   -  13 16 mph 1022.9mb 74f 75f
6:50am 3.5ft 6s 5s 11 16 mph 1023mb 74f 75f
6:40am  -   -   -  11 13 mph 1022.9mb 74f 75f
6:30am  -   -   -  11 13 mph 1022.9mb 74f 75f
6:20am  -   -   -  11 13 mph 1022.6mb 74f 75f
6:10am  -   -   -  11 13 mph 1022.5mb 74f 75f
6:00am  -   -   -  11 16 mph 1022.5mb 74f 75f
5:50am 3.5ft 7s 5s 11 16 mph 1022.4mb 74f 75f
5:40am 3.5ft  -  5s 11 16 mph 1022.4mb 74f 75f
5:30am  -   -   -  11 16 mph 1022.3mb 74f 75f
5:20am  -   -   -  13 16 mph 1022.3mb 74f 75f
5:10am  -   -   -  11 13 mph 1022.4mb 74f 75f
5:00am  -   -   -  11 13 mph 1022.3mb 74f 75f
4:50am 3.5ft 7s 5s 11 13 mph 1022.4mb 74f 75f
4:40am 3.5ft  -  5s 11 13 mph 1022.5mb 74f 75f
4:30am  -   -   -  11 13 mph 1022.3mb 74f 75f
4:20am  -   -   -  13 16 mph 1022.4mb 74f 75f
4:10am  -   -   -  13 16 mph 1022.4mb 74f 75f
4:00am  -   -   -  13 16 mph 1022.4mb 74f 75f
3:50am 3.5ft 6s 5s 13 16 mph 1022.4mb 74f 75f
3:40am 3.5ft  -  5s 13 16 mph 1022.3mb 74f 75f
3:30am  -   -   -  13 16 mph 1022.1mb 74f 75f
3:20am  -   -   -  13 16 mph 1022.1mb 74f 75f
3:10am  -   -   -  11 16 mph 1022.3mb 74f 75f
3:00am  -   -   -  13 16 mph 1022mb 74f 75f
2:50am 3ft 6s 5s 13 16 mph 1022.3mb - 75f
2:40am 3ft  -  5s 11 13 mph 1022.1mb 74f 75f
2:30am  -   -   -  11 13 mph 1022.3mb 74f 75f
2:20am  -   -   -  11 13 mph 1022.3mb 74f 75f
2:10am  -   -   -  13 16 mph 1022.4mb 74f 75f
2:00am  -   -   -  13 16 mph 1022.5mb 74f 75f
1:50am 3ft 7s 5s 13 16 mph 1022.5mb 74f 75f
1:40am 3ft  -  5s 13 16 mph 1022.5mb 74f 75f
1:30am  -   -   -  11 16 mph 1022.6mb 74f 75f
1:20am  -   -   -  13 16 mph 1022.8mb 74f 75f
1:10am  -   -   -  11 13 mph 1022.8mb 74f 75f
1:00am  -   -   -  11 13 mph 1022.8mb 74f 75f
12:50am 3ft 7s 5s 11 13 mph 1022.9mb 74f 75f
12:40am 3ft  -  5s 13 16 mph 1022.9mb 74f 75f
12:30am  -   -   -  11 16 mph 1022.8mb 74f 75f
12:20am  -   -   -  11 16 mph 1023mb 74f 75f
12:10am  -   -   -  13 16 mph 1023mb 74f 75f
12:00am  -   -   -  13 16 mph 1023mb 74f 75f
Sat 04/29 11:50pm 3ft 8s 5s 11 16 mph 1023mb 74f 75f
11:40pm 3ft  -  5s 11 13 mph 1023mb 74f 75f
11:30pm  -   -   -  11 13 mph 1023.1mb 74f 75f
11:20pm  -   -   -  11 13 mph 1023.3mb 74f 76f
11:10pm  -   -   -  11 13 mph 1023.3mb 74f 76f
11:00pm  -   -   -  11 13 mph 1023.3mb 74f 76f
10:50pm 2.5ft 8s 5s 11 13 mph 1023.3mb 74f 76f
10:40pm 2.5ft  -  5s 11 13 mph 1023.3mb 74f 76f
10:30pm  -   -   -  11 13 mph 1023.4mb 74f 76f
10:20pm  -   -   -  11 13 mph 1023mb 74f 76f
10:10pm  -   -   -  11 16 mph 1023mb 74f 75f
10:00pm  -   -   -  11 13 mph 1023mb 74f 76f
9:10pm  -   -   -  11 13 mph 1022.9mb 74f 75f
9:00pm  -   -   -  11 13 mph 1023mb 74f 76f
8:50pm 3ft 8s 5s 11 13 mph 1023mb 74f 76f
8:40pm 3ft  -  5s 9 11 mph 1022.9mb 74f 75f
8:30pm  -   -   -  9
mph
1023mb 74f 75f
8:20pm  -   -   -  9 11 mph 1022.9mb 74f 75f
8:10pm  -   -   -  9 11 mph 1022.8mb 74f 75f
8:00pm  -   -   -  9 11 mph 1022.8mb 74f 76f
7:50pm 3.5ft 6s 5s 9 11 mph 1022.6mb 74f 76f
7:40pm 3.5ft  -  5s 9 11 mph 1022.5mb 74f 75f
7:30pm  -   -   -  9 11 mph 1022.5mb 74f 76f
7:20pm  -   -   -  9 11 mph 1022.5mb 74f 76f
7:10pm  -   -   -  9 11 mph 1022.8mb 74f 76f
7:00pm  -   -   -  9 11 mph 1022.8mb 74f 76f
6:50pm 3.5ft 7s 5s 9 11 mph 1022.8mb 74f 76f
6:40pm 3.5ft  -  5s 9 11 mph 1022.8mb 74f 76f
6:30pm  -   -   -  9 11 mph 1022.8mb 75f 76f
6:20pm  -   -   -  9 11 mph 1022.9mb 75f 76f
6:10pm  -   -   -  9 11 mph 1023mb 75f 76f
6:00pm  -   -   -  9 11 mph 1022.9mb 75f 76f
5:50pm 3.5ft 5s 5s 9 11 mph 1022.9mb 75f 76f
5:40pm 3.5ft  -  5s 9 11 mph 1022.9mb 75f 76f
5:30pm  -   -   -  9 11 mph 1023mb 75f 76f
5:20pm  -   -   -  9 11 mph 1023mb 75f 76f
5:10pm  -   -   -  9
mph
1023mb 75f 76f
5:00pm  -   -   -  7 9 mph 1023mb 75f 76f
4:50pm 3.5ft 8s 5s 9
mph
1023mb 74f 76f
4:40pm 3.5ft  -  5s 9
mph
1023.1mb 74f 76f
4:30pm  -   -   -  9
mph
1023.3mb 74f 76f
4:20pm  -   -   -  9 11 mph 1023.3mb 74f 76f
4:10pm  -   -   -  9 11 mph 1023.4mb 74f 76f
4:00pm  -   -   -  9 11 mph 1023.4mb 74f 76f
3:50pm 3.5ft 5s 5s 9 11 mph 1023.5mb 74f 76f
3:40pm 3.5ft  -  5s 9 11 mph 1023.5mb 74f 76f
3:30pm  -   -   -  9 11 mph 1023.5mb 74f 76f
3:20pm  -   -   -  9 11 mph 1023.5mb 74f 76f
3:10pm  -   -   -  9 11 mph 1023.6mb 74f 76f
3:00pm  -   -   -  9 11 mph 1023.8mb 74f 76f
2:50pm 3.5ft 6s 5s 9 11 mph 1023.5mb 74f 76f
2:40pm 3.5ft  -  5s 9 11 mph 1023.5mb 74f 76f
2:30pm  -   -   -  9
mph
1023.6mb 74f 76f
2:20pm  -   -   -  9
mph
1023.6mb 74f 76f
2:10pm  -   -   -  9 11 mph 1023.8mb 74f 76f
2:00pm  -   -   -  9 11 mph 1023.5mb 74f 76f
1:50pm 3.5ft 6s 5s 11
mph
1023.8mb 74f 76f
1:40pm  -   -   -  11 13 mph 1023.6mb 74f 76f
1:30pm  -   -   -  11 13 mph 1023.8mb 74f 75f
1:20pm  -   -   -  11 13 mph 1023.8mb 74f 75f
1:10pm  -   -   -  11 13 mph 1023.9mb 74f 75f
1:00pm  -   -   -  11 13 mph 1023.9mb 74f 75f
12:50pm 3.5ft 6s 5s 11
mph
1024mb 74f 75f
12:40pm  -   -   -  9 11 mph 1024mb 74f 75f
12:30pm  -   -   -  9 11 mph 1024mb 74f 75f
12:20pm  -   -   -  11
mph
1024mb 74f 75f
12:10pm  -   -   -  11 13 mph 1024.2mb 74f 75f
12:00pm  -   -   -  11
mph
1024mb 74f 75f
11:50am 3.5ft 5s 5s 9 11 mph 1024.3mb 74f 75f
11:40am 3.5ft  -  5s 9 11 mph 1024.3mb 74f 75f
11:30am  -   -   -  9
mph
1024.5mb 73f 75f
11:20am  -   -   -  7 9 mph 1024.5mb 74f 75f
11:10am  -   -   -  7 9 mph 1024.5mb 73f 75f
11:00am  -   -   -  9 11 mph 1024.5mb 73f 75f
10:50am 3.5ft 5s 5s 11
mph
1024.3mb 73f 75f
10:40am 3.5ft  -  5s 11
mph
1024.2mb 73f 75f
10:30am  -   -   -  11 13 mph 1024.2mb 73f 75f
10:20am  -   -   -  11 13 mph 1024mb 73f 75f
10:10am  -   -   -  11 13 mph 1024mb 73f 75f
10:00am  -   -   -  11 13 mph 1024mb 73f 75f
9:50am 4ft 5s 5s 11 13 mph 1024mb - 75f
9:40am 4ft  -  5s 11 13 mph 1024mb 73f 75f
9:30am  -   -   -  11
mph
1024mb 73f 75f
9:20am  -   -   -  11 13 mph 1024mb 73f 75f
9:10am  -   -   -  11
mph
1024mb 73f 75f
9:00am  -   -   -  11
mph
1024.2mb - 75f
8:50am 4ft 5s 5s 11 13 mph 1024.2mb 73f 75f
8:40am 4ft  -  5s 11 13 mph 1024.3mb 73f 75f
8:30am  -   -   -  11 16 mph 1024.3mb 73f -
8:20am  -   -   -  13 16 mph 1024mb 73f 75f
8:10am  -   -   -  11 16 mph 1024.2mb 73f 75f
8:00am  -   -   -  11 16 mph 1024.2mb 73f 75f
7:50am 4ft 5s 5s 11 13 mph 1024.2mb 73f 75f
7:40am 4ft  -  5s 11 13 mph 1024.2mb 73f 75f
7:30am  -   -   -  11 13 mph 1023.9mb 73f 75f
7:20am  -   -   -  9 13 mph 1023.8mb 73f 75f
7:10am  -   -   -  9 11 mph 1023.5mb 73f 75f
7:00am  -   -   -  9 11 mph 1023.4mb 73f 74f
6:50am 4ft 5s 5s 9 11 mph 1023.3mb 73f 74f
6:40am 4ft  -  5s 9 11 mph 1023mb 73f 74f
6:30am  -   -   -  9 11 mph 1023mb 73f 75f
6:20am  -   -   -  9 11 mph 1022.9mb 73f 75f
6:10am  -   -   -  9 11 mph 1022.8mb 73f 75f
6:00am  -   -   -  9 11 mph 1022.5mb 73f 75f
5:50am 4ft 5s 5s 11 13 mph 1022.3mb 73f 75f
5:40am 4ft  -  5s 11 13 mph 1022.1mb 73f 75f
5:30am  -   -   -  11 13 mph 1022mb 73f 75f
5:20am  -   -   -  13 16 mph 1021.8mb 73f 75f
5:10am  -   -   -  13 16 mph 1021.6mb 73f 75f
5:00am  -   -   -  13 16 mph 1021.6mb 73f 75f
4:50am 4ft 4s 5s 13 16 mph 1021.5mb 73f 75f
4:40am 4ft  -  5s 13 16 mph 1021.5mb 73f 75f
4:30am  -   -   -  13 16 mph 1021.4mb 73f 75f
4:20am  -   -   -  13 16 mph 1021.4mb 73f 75f
4:10am  -   -   -  11 16 mph 1021.3mb 73f 75f
4:00am  -   -   -  11 13 mph 1021.3mb 73f 75f
3:50am 3.5ft 5s 5s 13 16 mph 1021.1mb 73f 75f
3:40am 3.5ft  -  5s 13 16 mph 1021mb 73f 75f
3:30am  -   -   -  13 16 mph 1021mb 73f 75f
3:20am  -   -   -  13 16 mph 1021mb 73f 75f
3:10am  -   -   -  11 16 mph 1021mb 73f 75f
3:00am  -   -   -  11 13 mph 1021.1mb 73f 75f
2:50am 3.5ft 6s 5s 11 13 mph 1021.1mb 73f 75f
2:40am 3.5ft  -  5s 11 13 mph 1021.3mb 73f 75f
2:30am  -   -   -  11 13 mph 1021.4mb 73f 75f
2:20am  -   -   -  11 13 mph 1021.4mb 73f 75f
2:10am  -   -   -  11 13 mph 1021.4mb 73f 75f
2:00am  -   -   -  11 13 mph 1021.5mb 73f 75f
1:50am 3.5ft 6s 5s 11 13 mph 1021.4mb 73f 75f
1:40am 3.5ft  -  5s 11 13 mph 1021.4mb 73f 75f
1:30am  -   -   -  11 13 mph 1021.5mb 73f 75f
1:20am  -   -   -  11 13 mph 1021.6mb 73f 75f
1:10am  -   -   -  11 13 mph 1021.6mb 73f 75f
1:00am  -   -   -  11 13 mph 1021.8mb 73f 75f
12:50am 2.5ft 5s 5s 11 13 mph 1021.9mb 73f 75f
12:40am  -   -   -  11 13 mph 1021.9mb 73f 75f
12:30am  -   -   -  9 11 mph 1022mb 73f 75f
12:20am  -   -   -  9 11 mph 1022mb 73f 75f
12:10am  -   -   -  9 11 mph 1022mb 73f 75f
12:00am  -   -   -  9 11 mph 1021.9mb 73f 75f
Fri 04/28 11:50pm 3ft 5s 5s 9 11 mph 1021.9mb 73f 75f
11:40pm  -   -   -  9 11 mph 1021.8mb 73f 75f
11:30pm  -   -   -  9 11 mph 1021.8mb - 75f
11:20pm  -   -   -  9
mph
1021.6mb 73f 75f
11:10pm  -   -   -  9 11 mph 1021.6mb 73f 75f
11:00pm  -   -   -  9 11 mph 1021.5mb 73f 75f
10:50pm 3ft 8s 5s 9 11 mph 1021.5mb 73f 75f
10:40pm 3ft  -  5s 9 11 mph 1021.4mb 73f 75f
10:30pm  -   -   -  9 11 mph 1021.3mb 73f 75f
10:20pm  -   -   -  9 11 mph 1021.4mb 73f 75f
10:10pm  -   -   -  9 11 mph 1021.3mb 73f 75f
10:00pm  -   -   -  9 11 mph 1021.1mb 73f 75f
9:50pm 3.5ft 6s 5s 9 11 mph 1021mb 73f 75f
9:40pm  -   -   -  11
mph
1021mb 74f -
9:30pm  -   -   -  11
mph
1021mb 74f 75f
9:20pm  -   -   -  9 11 mph 1020.9mb 74f 75f
9:10pm  -   -   -  11
mph
1020.8mb 74f 75f
9:00pm  -   -   -  9 11 mph 1020.8mb 74f 75f
8:50pm 3.5ft 8s 5s 9 11 mph 1020.6mb 74f 75f
8:40pm 3.5ft  -  5s 9 11 mph 1020.6mb 74f 75f
8:30pm  -   -   -  9 11 mph 1020.5mb 74f 75f
8:20pm  -   -   -  9 11 mph 1020.5mb 74f 75f
8:10pm  -   -   -  9 11 mph 1020.5mb 74f 75f
8:00pm  -   -   -  9 11 mph 1020.5mb 74f 75f
7:50pm 3.5ft 6s 5s 9 11 mph 1020.5mb 74f 75f
7:40pm 3.5ft  -  5s 9 11 mph 1020.4mb 74f 75f
7:30pm  -   -   -  9
mph
1020.5mb 74f 75f
7:20pm  -   -   -  9
mph
1020.4mb 74f 75f
7:10pm  -   -   -  9
mph
1020.4mb 74f 75f
7:00pm  -   -   -  9
mph
1020.4mb 74f 75f
6:50pm 4ft 5s 5s 9
mph
1020.4mb 74f 75f
6:40pm  -   -   -  9
mph
1020.4mb 74f 75f
6:30pm  -   -   -  9 11 mph 1020.4mb 74f 75f
6:20pm  -   -   -  9 11 mph 1020.1mb 74f 75f
6:10pm  -   -   -  9 11 mph 1020.1mb 74f 75f
6:00pm  -   -   -  9
mph
1020.1mb 74f 75f
5:50pm 3.5ft 6s 5s 9 11 mph 1020.1mb 74f 75f
5:40pm 3.5ft  -  5s 9 11 mph 1020mb 74f 75f
5:30pm  -   -   -  9 11 mph 1020mb 73f 75f
5:20pm  -   -   -  9 11 mph 1020.1mb 73f 76f
5:10pm  -   -   -  9 11 mph 1020.1mb 73f 76f
5:00pm  -   -   -  9 11 mph 1020mb 73f 76f
4:50pm 3.5ft 5s 5s 9 11 mph 1020mb 73f 76f
4:40pm 3.5ft  -  5s 9 11 mph 1020mb 73f 76f
4:30pm  -   -   -  11
mph
1020mb 73f 76f
4:20pm  -   -   -  11 13 mph 1020mb 73f 76f
4:10pm  -   -   -  11 13 mph 1020mb 73f 76f
4:00pm  -   -   -  11
mph
1020mb 73f 76f
3:50pm 3.5ft 6s 5s 9 11 mph 1020mb 73f 76f
3:40pm 3.5ft  -  5s 9 11 mph 1020mb 73f 76f
3:30pm  -   -   -  9 11 mph 1020.1mb 73f 76f
3:20pm  -   -   -  11 13 mph 1020.1mb 73f 76f
3:10pm  -   -   -  11 13 mph 1020.1mb 73f 76f
3:00pm  -   -   -  11 13 mph 1020.1mb 73f 76f
2:50pm 4ft 8s 5s 11 13 mph 1020.1mb 73f 76f
2:40pm 4ft  -  5s 11 13 mph 1020.3mb 73f 75f
2:30pm  -   -   -  11 13 mph 1020.1mb 73f 75f
2:20pm  -   -   -  11 16 mph 1020.1mb 73f 75f
2:10pm  -   -   -  11 13 mph 1020.1mb 73f 75f
2:00pm  -   -   -  11 13 mph 1020.3mb 73f 75f
1:50pm 3.5ft 6s 5s 11 13 mph 1020.4mb 73f 75f
1:40pm 3.5ft  -  5s 11 13 mph 1020.4mb 73f 75f
1:30pm  -   -   -  11
mph
1020.4mb 73f 75f
1:20pm  -   -   -  11
mph
1020.4mb 73f 75f
1:10pm  -   -   -  11 13 mph 1020.4mb 73f 75f
1:00pm  -   -   -  11 13 mph 1020.4mb 73f 75f
12:50pm 4ft  -  5s 11 13 mph 1020.3mb 73f 75f
12:40pm 4ft 8s  -   -  mph - - -
12:30pm  -   -   -  11 13 mph 1020mb 73f -
12:20pm  -   -   -  11 13 mph 1020mb 73f 75f
12:10pm  -   -   -  11 13 mph 1020mb 73f 75f
12:00pm  -   -   -  11 13 mph 1020mb 73f 75f
11:50am 3.5ft 6s 5s 11 13 mph 1020mb 73f 75f
11:40am 3.5ft  -  5s 11 13 mph 1020mb 73f 75f
11:30am  -   -   -  11 13 mph 1020mb 73f 75f
11:20am  -   -   -  11 13 mph 1019.9mb 73f 75f
11:10am  -   -   -  11 16 mph 1019.9mb 73f 75f
11:00am  -   -   -  13 16 mph 1019.8mb 73f 75f
10:50am 3.5ft 6s 5s 13 16 mph 1019.6mb 73f 75f
10:40am 3.5ft  -  5s 13 16 mph 1019.5mb 73f 75f
10:30am  -   -   -  11 13 mph 1019.5mb 73f 75f
10:20am  -   -   -  11 13 mph 1019.5mb 73f 75f
10:10am  -   -   -  13
mph
1019.3mb 73f 75f
10:00am  -   -   -  13 16 mph 1019.3mb 73f 75f
9:50am 3.5ft 6s 5s 13 16 mph 1019.3mb 73f 75f
9:40am  -   -   -  13 16 mph 1019.3mb 73f 75f
9:30am  -   -   -  13 16 mph 1019.1mb 73f 75f
9:20am  -   -   -  11 13 mph 1019.3mb 73f 75f
9:10am  -   -   -  11 13 mph 1019.3mb 73f 75f
9:00am  -   -   -  11 13 mph 1019.1mb 73f 75f
8:50am 4ft 6s 5s 11 13 mph 1019.1mb 73f 75f
8:40am 4ft  -  5s 11 13 mph 1019mb 73f 75f
8:30am  -   -   -  11 13 mph 1019mb 73f 75f
8:20am  -   -   -  11 13 mph 1018.8mb 73f 75f
8:10am  -   -   -  11 13 mph 1018.6mb 73f 75f
8:00am  -   -   -  11 13 mph 1018.5mb 73f 75f
7:40am  -   -   -  11 16 mph 1018.3mb 73f 75f
7:30am  -   -   -  11 13 mph 1018mb 73f 75f
7:20am  -   -   -  11 16 mph 1018mb 73f 74f
7:10am  -   -   -  11 13 mph 1017.9mb 73f 74f
7:00am  -   -   -  11 13 mph 1017.9mb 73f 74f
6:50am 4.5ft 6s 5s 13 16 mph 1017.5mb 73f 74f
6:40am 4.5ft  -  5s 13 16 mph 1017.5mb 73f 75f
6:30am  -   -   -  13 16 mph 1017.4mb 73f 74f
6:20am  -   -   -  11 16 mph 1017.4mb 73f 74f
6:10am  -   -   -  13 16 mph 1017.4mb 73f 75f
6:00am  -   -   -  13 16 mph 1017.3mb 73f 75f
5:50am 4.5ft 6s 5s 13 16 mph 1017mb 73f 75f
5:40am  -   -   -  13 16 mph 1016.9mb 73f 75f
5:30am  -   -   -  13 16 mph 1016.9mb 73f 75f
5:20am  -   -   -  13 16 mph 1016.8mb 73f 74f
5:10am  -   -   -  13 16 mph 1016.8mb 73f 74f
5:00am  -   -   -  13 16 mph 1016.6mb 73f 74f
4:50am 4.5ft 6s 5s 11 13 mph 1016.5mb 73f 74f
4:40am 4.5ft  -  5s 11 16 mph 1016.5mb 73f 74f
4:30am  -   -   -  11 13 mph 1016.5mb 73f 75f
4:20am  -   -   -  11 13 mph 1016.3mb 73f 75f
4:10am  -   -   -  13 16 mph 1016.1mb 73f 75f
4:00am  -   -   -  13 16 mph 1016mb 73f 75f
3:50am 4.5ft 6s 5s 16 18 mph 1015.5mb 73f 75f
3:40am  -   -   -  13 18 mph 1015.5mb 73f 75f
3:30am  -   -   -  13 18 mph 1015.5mb 73f 75f
3:20am  -   -   -  13 18 mph 1015.4mb 73f 75f
3:10am  -   -   -  13 18 mph 1015.4mb 73f 75f
3:00am  -   -   -  13 16 mph 1015.1mb 73f 75f
2:50am 4.5ft 6s 5s 13 18 mph 1015.1mb 73f 75f
2:40am  -   -   -  13 18 mph 1015.1mb 73f 75f
2:30am  -   -   -  13 18 mph 1015.3mb 73f 75f
2:20am  -   -   -  16 18 mph 1015.3mb 73f 75f
2:10am  -   -   -  13 18 mph 1015mb 73f 75f
2:00am  -   -   -  13 18 mph 1015.1mb 73f 75f
1:50am 4.5ft 6s 5s 13 16 mph 1015.3mb 73f 75f
1:40am 4.5ft  -  5s 13 16 mph 1015.5mb 73f 75f
1:30am  -   -   -  13 18 mph 1015.5mb 73f 75f
1:20am  -   -   -  13 16 mph 1015.4mb 73f 75f
1:10am  -   -   -  11 16 mph 1015.4mb 73f 75f
1:00am  -   -   -  11 13 mph 1015.5mb 73f 75f
12:50am 4.5ft 8s 5s 11 13 mph 1015.6mb 73f 75f
12:40am 4.5ft  -  5s 11 13 mph 1015.6mb 73f 75f
12:30am  -   -   -  11 13 mph 1015.6mb 73f 75f
12:20am  -   -   -  11 16 mph 1015.9mb 73f 75f
12:10am  -   -   -  11 13 mph 1015.9mb 73f 75f
12:00am  -   -   -  11 13 mph 1015.8mb 73f 75f
Thu 04/27 11:50pm 4.5ft 8s 5s 11 13 mph 1015.8mb 73f 75f
11:40pm 4.5ft  -  5s 9 11 mph 1015.6mb 73f 75f
11:30pm  -   -   -  9
mph
1015.8mb - 75f
11:20pm  -   -   -  9
mph
1015.8mb 73f 75f
11:10pm  -   -   -  9 11 mph 1015.5mb 73f 75f
11:00pm  -   -   -  11 13 mph 1015.5mb 73f 75f
10:50pm 4ft 6s 5s 13 16 mph 1015.3mb 73f 75f
10:40pm 4ft  -  5s 13 16 mph 1015mb 73f 75f
10:30pm  -   -   -  16 18 mph 1014.9mb 73f 75f
10:20pm  -   -   -  16 20 mph 1014.5mb 73f 75f
10:10pm  -   -   -  16 20 mph 1014.5mb 73f 75f
10:00pm  -   -   -  18 20 mph 1014.3mb 73f 75f
9:40pm  -   -   -  16 18 mph 1014mb 73f 75f
9:30pm  -   -   -  16 18 mph 1013.8mb 73f 75f
9:20pm  -   -   -  16 18 mph 1013.5mb - -
9:10pm  -   -   -  16 20 mph 1013.5mb 73f 75f
9:00pm  -   -   -  16 18 mph 1013.1mb 73f 75f
8:50pm 4ft 9s 5s 16 18 mph 1013.3mb 73f 75f
8:40pm 4ft  -  5s 16 18 mph 1013.5mb 73f 75f
8:30pm  -   -   -  13 16 mph 1013.5mb 73f 75f
8:20pm  -   -   -  13 18 mph 1013.5mb 74f -
8:10pm  -   -   -  13 16 mph 1013.5mb 74f 75f
8:00pm  -   -   -  13 16 mph 1013.3mb 74f 75f
7:50pm 4.5ft 8s 5s 13 16 mph 1013.4mb 74f 75f
7:40pm 4.5ft  -  5s 13 18 mph 1013.5mb 74f 75f
7:30pm  -   -   -  13 16 mph 1013.5mb 74f 75f
7:20pm  -   -   -  13 16 mph 1013.6mb 74f 75f
7:10pm  -   -   -  13 16 mph 1013.8mb 74f 75f
7:00pm  -   -   -  13 16 mph 1013.8mb 74f 75f
6:50pm 4.5ft 6s 5s 13 16 mph 1013.8mb 74f 75f
6:40pm  -   -   -  13 16 mph 1013.9mb 74f 75f
6:30pm  -   -   -  11 16 mph 1014mb 74f 76f
6:20pm  -   -   -  13 16 mph 1013.8mb 74f 76f
6:10pm  -   -   -  13 16 mph 1013.8mb 74f 76f
6:00pm  -   -   -  13 16 mph 1013.6mb 74f 76f
5:50pm 4.5ft 5s 5s 13 16 mph 1013.5mb 74f 76f
5:40pm  -   -   -  13 16 mph 1013.5mb 74f 76f
5:30pm  -   -   -  11 13 mph 1013.6mb 74f 75f
5:20pm  -   -   -  11 13 mph 1013.8mb 74f 75f
5:10pm  -   -   -  9 11 mph 1013.8mb 74f 75f
5:00pm  -   -   -  9 11 mph 1013.9mb 74f 75f
4:50pm 4.5ft 9s 6s 9 11 mph 1013.6mb 74f 75f
4:40pm 4.5ft  -  6s 9 11 mph 1013.6mb 74f 75f
4:30pm  -   -   -  9
mph
1013.6mb 74f 75f
4:20pm  -   -   -  7 9 mph 1013.8mb 74f 75f
4:10pm  -   -   -  9 11 mph 1013.8mb 74f 75f
4:00pm  -   -   -  9
mph
1013.8mb 74f 75f
3:50pm 4.5ft 6s 5s 9
mph
1013.6mb 74f 75f
3:40pm 4.5ft  -  5s 9 11 mph 1013.9mb 74f 74f
3:30pm  -   -   -  9 11 mph 1013.8mb 74f 75f
3:20pm  -   -   -  9 11 mph 1013.8mb 74f 74f
3:10pm  -   -   -  9 13 mph 1013.9mb 74f 74f
3:00pm  -   -   -  11 13 mph 1014.3mb 74f 74f
2:50pm 4.5ft 6s 6s 11 13 mph 1014.1mb 74f 74f
2:40pm  -   -   -  11 13 mph 1014.3mb 74f 74f
2:30pm  -   -   -  11 13 mph 1014mb 74f 74f
2:20pm  -   -   -  11 16 mph 1014mb 74f 74f
2:10pm  -   -   -  13 16 mph 1014mb 74f 74f
2:00pm  -   -   -  13 16 mph 1014.3mb 74f 74f
1:50pm 4.5ft 9s 6s 13 16 mph 1014mb - 74f
1:40pm  -   -   -  13 16 mph 1014.1mb 74f 74f
1:30pm  -   -   -  13 16 mph 1014mb 74f 74f
1:20pm  -   -   -  11 16 mph 1014mb 74f 74f
1:10pm  -   -   -  11 13 mph 1014.3mb 74f 74f
1:00pm  -   -   -  9 11 mph 1014.3mb 74f 74f
12:50pm 4.5ft 8s 6s 7 9 mph 1014.3mb 73f 74f
12:40pm 4.5ft  -  6s 7 9 mph 1014.3mb 73f 74f
12:30pm  -   -   -  4 7 mph 1014.4mb 73f 74f
12:20pm  -   -   -  4 7 mph 1014.5mb 73f 74f
12:10pm  -   -   -  7 9 mph 1014.6mb 73f 74f
12:00pm  -   -   -  9
mph
1014.8mb 73f 73f
11:50am 4ft 9s 6s 7 9 mph 1014.9mb 73f 74f
11:40am 4ft  -  6s 7 9 mph 1014.9mb 73f 74f
11:30am  -   -   -  7 9 mph 1015mb 73f 74f
11:20am  -   -   -  9
mph
1015mb 73f 73f
11:10am  -   -   -  9 11 mph 1015mb 73f 74f
11:00am  -   -   -  9 11 mph 1015.1mb 73f 74f
10:50am 3.5ft 9s 6s 9 11 mph 1015mb 73f 74f
10:40am 3.5ft  -  6s 9 11 mph 1015mb 73f 74f
10:30am  -   -   -  9 11 mph 1015mb 73f 74f
10:20am  -   -   -  9 11 mph 1014.9mb 73f 74f
10:10am  -   -   -  9 13 mph 1014.9mb 73f 74f
10:00am  -   -   -  11 13 mph 1015mb 73f 74f
9:50am 4ft 9s 6s 9 11 mph 1015mb 73f 74f
9:40am 4ft  -  6s 11 13 mph 1014.9mb 73f 74f
9:30am  -   -   -  9 13 mph 1014.8mb 73f 74f
9:20am  -   -   -  9 11 mph 1014.5mb 73f 74f
9:10am  -   -   -  9 13 mph 1014.3mb 73f 74f
9:00am  -   -   -  9 11 mph 1014.1mb 73f 74f
8:50am 3.5ft 9s 6s 11 13 mph 1014mb 73f 74f
8:40am 3.5ft  -  6s 11 13 mph 1013.9mb 73f 74f
8:30am  -   -   -  11 13 mph 1013.6mb 73f 74f
8:20am  -   -   -  11
mph
1013.6mb 73f 74f
8:10am  -   -   -  11 13 mph 1013.5mb 73f 74f
8:00am  -   -   -  11
mph
1013.3mb 73f 74f
7:50am 4ft 9s 5s 11 13 mph 1013.3mb 73f 73f
7:40am 4ft  -  5s 9 13 mph 1013.1mb 73f 73f
7:30am  -   -   -  7 9 mph 1013.1mb 73f 73f
7:20am  -   -   -  9
mph
1013mb 73f 73f
7:10am  -   -   -  9
mph
1012.9mb 73f 73f
7:00am  -   -   -  9
mph
1012.9mb 73f 73f
6:50am 4ft 9s 5s 7 9 mph 1013mb 73f 73f
6:40am 4ft  -  5s 7
mph
1013mb 73f 73f
6:30am  -   -   -  7 9 mph 1012.8mb 73f 73f
6:20am  -   -   -  7 9 mph 1012.8mb 73f 73f
6:10am  -   -   -  7 9 mph 1012.6mb 73f 73f
6:00am  -   -   -  9 11 mph 1012.5mb 73f 73f
5:50am 4ft 9s 5s 9 16 mph 1012.6mb 73f 73f
5:40am 4ft  -  5s 9 13 mph 1012.5mb 73f 73f
5:30am  -   -   -  7 9 mph 1012.3mb 73f 73f
5:20am  -   -   -  7 9 mph 1012.1mb 73f 73f
5:10am  -   -   -  7
mph
1012mb 73f 73f
5:00am  -   -   -  7 9 mph 1012mb 73f 73f
4:50am 3.5ft 8s 6s 7 9 mph 1012mb 73f 73f
4:40am 3.5ft  -  6s 4 7 mph 1011.9mb 73f 73f
4:30am  -   -   -  7 9 mph 1011.9mb 73f 73f
4:20am  -   -   -  7 9 mph 1011.9mb 73f 73f
4:10am  -   -   -  7 9 mph 1012mb 73f 73f
4:00am  -   -   -  7 9 mph 1012mb 73f 73f
3:50am 3.5ft 8s 6s 7 9 mph 1012mb 73f 73f
3:40am 3.5ft  -  6s 9
mph
1012mb 74f 73f
3:30am  -   -   -  9 11 mph 1011.9mb 74f 73f
3:20am  -   -   -  9 11 mph 1012mb 74f 73f
3:10am  -   -   -  9 11 mph 1012mb 74f 74f
3:00am  -   -   -  11 13 mph 1012mb 74f 74f
2:50am 4ft 8s 6s 11 13 mph 1012mb 74f 74f
2:40am 4ft  -  6s 11 13 mph 1012mb 74f 74f
2:30am  -   -   -  11 13 mph 1012mb 74f 74f
2:20am  -   -   -  11 13 mph 1012mb 74f 74f
2:10am  -   -   -  11 16 mph 1012.1mb 74f 74f
2:00am  -   -   -  13 16 mph 1012.1mb 74f 74f
1:50am 4.5ft 8s 6s 13 16 mph 1012.1mb 74f 74f
1:40am 4.5ft  -  6s 13 16 mph 1012.3mb 74f 74f
1:30am  -   -   -  11 16 mph 1012.4mb 74f 74f
1:20am  -   -   -  11 13 mph 1012.4mb 74f 74f
1:10am  -   -   -  11 13 mph 1012.5mb 74f 74f
1:00am  -   -   -  13 16 mph 1012.4mb 74f 74f
12:50am 4.5ft 9s 6s 13 16 mph 1012.4mb 73f 74f
12:40am 4.5ft  -  6s 13 16 mph 1012.4mb 73f 74f
12:30am  -   -   -  13 18 mph 1012.4mb 73f 74f
12:20am  -   -   -  13 18 mph 1012.4mb 73f 74f
12:10am  -   -   -  13 18 mph 1012.4mb 73f 74f
12:00am  -   -   -  13 18 mph 1012.4mb 73f 74f
Wed 04/26 11:50pm 3.5ft 9s 5s 13 18 mph 1012.4mb 73f 74f
11:40pm 3.5ft  -  5s 13 18 mph 1012.4mb 73f 74f
11:30pm  -   -   -  13 18 mph 1012.4mb 73f 74f
11:20pm  -   -   -  16 18 mph 1012.4mb 73f 74f
11:10pm  -   -   -  13 18 mph 1012.4mb 73f 74f
11:00pm  -   -   -  13 18 mph 1012.4mb 73f 74f
10:50pm 4ft 9s 6s 16 18 mph 1012.4mb 73f 74f
10:40pm 4ft  -  6s 16 18 mph 1012.4mb 74f 74f
10:30pm  -   -   -  13 18 mph 1012.3mb 73f 74f
10:20pm  -   -   -  13 18 mph 1012.1mb 73f 74f
10:10pm  -   -   -  16 18 mph 1012.1mb 74f 74f
10:00pm  -   -   -  13 18 mph 1012mb 74f 74f
9:50pm 4ft 9s 5s 13 16 mph 1011.9mb 74f 74f
9:40pm  -   -   -  13 18 mph 1011.8mb 74f 74f
9:30pm  -   -   -  16 18 mph 1011.6mb - 74f
9:20pm  -   -   -  13 18 mph 1011.6mb 74f 74f
9:10pm  -   -   -  16 18 mph 1011.5mb 74f 74f
9:00pm  -   -   -  16 18 mph 1011.5mb - 74f